Location: Saratoga Springs
(43.0831°N, 73.7850°W)
Time: 07:06:07
(UTC-04:00)

Altair - Visible Passes

Search period start: 19 May 2025 00:00
Search period end: 29 May 2025 00:00
Orbit: 1501 x 1682 km, 47.2° (Epoch: 18 May)

Date Brightness Start Highest point End Pass type
(mag) Time Alt. Az. Time Alt. Az. Time Alt. Az.
23 May 9.4 04:37:42 10° SSE 04:43:03 16° ESE 04:48:29 10° E visible
24 May 9.4 04:13:28 10° SSE 04:18:00 14° ESE 04:22:33 10° E visible
25 May 9.5 03:49:32 10° SE 03:52:56 12° ESE 03:56:22 10° E visible
26 May 9.6 03:26:27 10° SE 03:27:53 10° ESE 03:29:21 10° ESE visible
28 May 8.5 04:31:45 10° SSW 04:40:16 38° SE 04:49:05 10° ENE visible
